#timestamp,LO_Frequency,Hit,StdDev 
1709409615.8,286047001.6,N
1709409635.6,286047001.5,N
1709409655.5,286047001.6,N
1709409675.3,286047004.0,N
1709409695.1,286047001.9,N
1709409715.9,286047002.8,N
1709409735.7,286047002.3,N
1709409755.6,286046999.7,N
1709409775.4,286046999.7,N
1709409795.2,286047002.1,N
1709409815.1,286047001.8,N
1709409816.0,286047001.8,N
1709409835.8,286047001.6,N
1709409855.7,286047000.2,N
1709409875.5,286046999.7,N
1709409895.3,286046999.8,N
1709409915.2,286047002.8,N
1709409935.0,286047002.8,N
1709409935.9,286047002.8,N
1709409955.7,286047000.5,N
1709409975.6,286047002.5,N
1709409995.4,286047000.4,N
1709410015.3,286047002.1,N
1709410035.1,286047002.2,N
1709410036.0,286047002.2,N
1709410055.8,286047001.8,N
1709410075.7,286046999.9,N
1709410095.5,286047000.6,N
1709410115.3,286046999.0,N
1709410135.2,286047000.8,N
1709410155.0,286046998.9,N
1709410155.9,286046998.9,N
1709410175.8,286046999.0,N
1709410195.6,286046998.1,N
1709410215.4,286047000.4,N
1709410235.3,286047000.3,N
1709410255.1,286047001.1,N
1709410275.9,286047000.4,N
1709410295.7,286047000.8,N
1709410315.5,286046998.5,N
1709410335.4,286046999.2,N
1709410355.2,286046998.2,N
1709410375.0,286047000.9,N
1709410375.9,286047000.9,N
1709410395.8,286046998.6,N
1709410415.6,286046999.0,N
1709410435.5,286047002.5,N
1709410455.3,286047001.7,N
1709410475.1,286047002.0,N
1709410495.9,286047002.6,N
1709410515.7,286047001.6,N
1709410535.5,286047002.0,N
1709410555.4,286047000.6,N
1709410575.2,286047000.8,N
1709410595.1,286047001.0,N
1709410596.0,286047001.0,N
1709410615.8,286046999.9,N
1709410635.6,286047002.0,N
1709410655.5,286047000.0,N
1709410675.3,286047000.1,N
1709410695.2,286047000.5,N
1709410715.9,286047000.7,N
1709410735.7,286047000.1,N
1709410755.6,286046999.7,N
1709410775.4,286047001.5,N
1709410795.2,286047002.0,N
1709410815.1,286047000.2,N
1709410816.0,286047000.2,N
1709410835.8,286047000.6,N
1709410855.7,286047000.2,N
1709410875.5,286046998.3,N
1709410895.3,286047000.7,N
1709410915.2,286046998.2,N
1709410935.0,286047000.1,N
1709410935.9,286047000.1,N
1709410955.8,286047002.5,N
1709410975.6,286047002.5,N
1709410995.4,286047000.6,N
1709411015.3,286047000.0,N
1709411035.1,286046998.2,N
1709411055.8,286047000.8,N
1709411075.7,286047000.8,N
1709411095.5,286046998.1,N
1709411115.4,286047000.7,N
1709411135.2,286047000.2,N
1709411155.0,286047000.5,N
1709411155.9,286047000.5,N
1709411175.8,286047000.3,N
1709411195.6,286046998.6,N
1709411215.4,286046999.4,N
1709411235.3,286046998.6,N
1709411255.1,286046999.2,N
1709411275.9,286046996.8,N
1709411295.7,286046996.9,N
1709411315.5,286046997.2,N
1709411335.4,286046996.7,N
1709411355.2,286046999.6,N
1709411375.0,286046999.1,N
1709411376.0,286046999.1,N
1709411395.8,286046999.2,N
1709411415.6,286046996.8,N
1709411435.5,286046996.9,N
1709411455.3,286046997.2,N
1709411475.1,286046997.3,N
1709411495.9,286046998.9,N
1709411515.7,286046998.9,N
1709411535.6,286047001.0,N
1709411555.4,286046998.2,N
1709411575.2,286047001.1,N
1709411595.1,286046999.4,N
1709411596.0,286046999.4,N
1709411615.8,286046996.8,N
1709411635.6,286046997.2,N
1709411655.5,286046997.7,N
1709411675.3,286046997.5,N
1709411695.2,286046997.5,N
1709411715.9,286046997.4,N
1709411735.7,286046999.6,N
1709411755.6,286046994.9,Y
1709411775.4,286046997.8,P
1709411795.3,286046997.5,P
1709411815.1,286046998.1,P
1709411816.0,286046998.1,Y
1709411835.8,286047002.2,P
1709411855.7,286047002.3,N
1709411875.5,286047000.9,N
1709411895.3,286046999.9,N
1709411915.2,286047002.4,N
1709411935.0,286047001.9,N
1709411935.9,286047001.9,N
1709411955.8,286047001.9,N
1709411975.6,286047000.1,N
1709411995.4,286047002.6,N
1709412015.3,286047000.3,N
1709412035.1,286047000.8,N
1709412055.8,286046999.9,N
1709412075.7,286047000.3,N
1709412095.5,286046999.7,N
1709412115.4,286047001.6,N
1709412135.2,286047002.3,N
1709412155.0,286047002.2,N
1709412155.9,286047002.2,N
1709412175.8,286047000.4,N
1709412195.6,286047000.7,N
1709412215.5,286047002.4,N
1709412235.3,286047002.0,N
1709412255.1,286047002.0,N
1709412275.9,286047002.2,N
1709412295.7,286047001.6,N
1709412315.5,286047000.1,N
1709412335.4,286047000.3,N
1709412355.2,286047000.3,N
1709412375.1,286047000.7,N
1709412376.0,286047000.7,N
1709412395.8,286046998.7,N
1709412415.6,286046998.5,N
1709412435.5,286046998.4,N
1709412455.3,286046999.4,N
1709412475.1,286046998.2,N
1709412495.9,286047000.5,N
1709412515.7,286046999.8,N
1709412535.6,286047002.8,N
1709412555.4,286047001.0,N
1709412575.2,286047000.5,N
1709412595.1,286047001.2,N
1709412596.0,286047001.2,N
1709412615.8,286047001.1,N
1709412635.7,286047000.8,N
1709412655.5,286047000.5,N
1709412675.3,286047000.4,N
1709412695.2,286047000.3,N
1709412715.0,286047000.3,N
1709412715.9,286047000.3,N
1709412735.7,286047001.2,N
1709412755.6,286047000.5,N
1709412775.4,286047002.2,N
1709412795.3,286047000.0,N
1709412815.1,286046999.9,N
1709412816.0,286046999.9,N
1709412835.8,286047002.2,N
1709412855.7,286047000.9,N
1709412875.5,286047000.6,N
1709412895.3,286047001.0,N
1709412915.2,286047001.2,N
1709412935.0,286047000.4,N
1709412935.9,286047000.4,N
1709412955.8,286047000.0,N
1709412975.6,286047000.9,N
1709412995.4,286047000.7,N
1709413015.3,286047000.8,N
1709413035.1,286047001.0,N
1709413055.9,286047002.6,Y
1709413075.7,286046998.8,P
1709413095.5,286046999.5,N
1709413115.4,286046996.8,P
1709413135.2,286046997.4,N
1709413155.1,286046999.4,N
1709413156.0,286046999.4,N
1709413175.8,286046999.6,N
1709413195.6,286046997.8,N
